Weather History for KRHP - May, 2013

Change the Weather History Date:

Friday, May 3, 2013

  Actual Average (KTYS) Record (KTYS)
Temperature  
Mean Temperature 62 °F 64 °F  
Max Temperature 69 °F 75 °F 90 °F (1894)
Min Temperature 54 °F 52 °F 37 °F (1988)
Degree Days  
Heating Degree Days 4 3  
Month to date heating degree days 11  
Since 1 July heating degree days 3586  
Cooling Degree Days 0 2  
Month to date cooling degree days 6  
Year to date cooling degree days 43  
Growing Degree Days 12 (Base 50)    
Moisture  
Dew Point 50 °F    
Average Humidity 67    
Maximum Humidity 90    
Minimum Humidity 45    
Precipitation  
Precipitation 0.00 in 0.15 in 1.77 in (2010)
Month to date precipitation 0.45  
Year to date precipitation 17.38  
Snow  
Snow 0.00 in 0.00 in - ()
Month to date snowfall 0.0  
Since 1 July snowfall 6.5  
Snow Depth -    
Sea Level Pressure  
Sea Level Pressure 30.08 in    
Wind  
Wind Speed 6 mph (ENE)    
Max Wind Speed 17 mph    
Max Gust Speed 26 mph    
Visibility 10 miles    
Events      
T = Trace of Precipitation, MM = Missing Value Source: NWS Daily Summary

Daily Weather History Graph

Daily Weather History Graph

Search for Another Location

Airport or City:

Trip Planner

Search our weather history database for the weather conditions in past years. The results will help you decide how hot, cold, wet, or windy it might be!

Date:

Astronomy

May. 03, 2013 Rise Set
Actual Time 6:41 AM EDT 8:23 PM EDT
Civil Twilight 6:14 AM EDT 8:50 PM EDT
Nautical Twilight 5:41 AM EDT 9:23 PM EDT
Astronomical Twilight 5:07 AM EDT 9:58 PM EDT
Moon 2:51 AM EDT (5/3) 2:29 PM EDT (5/3)
Length of Visible Light 14h 35m
Length of Day
13h 41m
Last Quarter, 37% of the Moon is Illuminated
May 3
Last Quarter
May 9
New
May 18
First Quarter
May 25
Full
May 31
Last Quarter

Hourly Weather History & Observations

Time (EDT) Temp. Dew Point Humidity Pressure Visibility Wind Dir Wind Speed Gust Speed Precip Events Conditions
12:15 AM 57.4 °F 50.2 °F 77% 30.18 in 10.0 mi Calm Calm - N/A   Mostly Cloudy
12:35 AM 57.0 °F 50.0 °F 77% 30.17 in 10.0 mi NNE 5.8 mph - N/A   Scattered Clouds
12:55 AM 56.5 °F 49.6 °F 78% 30.16 in 10.0 mi ENE 3.5 mph - N/A   Clear
1:15 AM 56.5 °F 50.2 °F 79% 30.15 in 10.0 mi Calm Calm - N/A   Scattered Clouds
1:35 AM 57.9 °F 50.5 °F 76% 30.14 in 10.0 mi ENE 3.5 mph - N/A   Mostly Cloudy
1:55 AM 55.9 °F 50.4 °F 82% 30.13 in 10.0 mi Calm Calm - N/A   Mostly Cloudy
2:15 AM 57.0 °F 51.1 °F 81% 30.13 in 10.0 mi Calm Calm - N/A   Overcast
2:35 AM 54.5 °F 51.6 °F 90% 30.12 in 10.0 mi Calm Calm - N/A   Overcast
2:55 AM 55.9 °F 51.8 °F 86% 30.12 in 10.0 mi Calm Calm - N/A   Overcast
3:15 AM 60.3 °F 51.4 °F 73% 30.11 in 10.0 mi ENE 6.9 mph - N/A   Overcast
3:35 AM 60.8 °F 51.4 °F 71% 30.11 in 10.0 mi East 6.9 mph - N/A   Overcast
3:55 AM 60.4 °F 51.3 °F 72% 30.10 in 10.0 mi East 8.1 mph - N/A   Overcast
4:15 AM 60.3 °F 51.4 °F 73% 30.11 in 10.0 mi East 8.1 mph - N/A   Overcast
4:35 AM 60.6 °F 51.4 °F 72% 30.10 in 10.0 mi ENE 6.9 mph - N/A   Overcast
4:55 AM 59.9 °F 51.1 °F 73% 30.10 in 10.0 mi East 8.1 mph - N/A   Mostly Cloudy
5:15 AM 59.2 °F 50.9 °F 74% 30.09 in 10.0 mi ENE 8.1 mph - N/A   Scattered Clouds
5:35 AM 59.9 °F 50.7 °F 72% 30.09 in 10.0 mi ENE 6.9 mph - N/A   Scattered Clouds
5:55 AM 59.5 °F 50.9 °F 73% 30.09 in 10.0 mi East 6.9 mph - N/A   Overcast
6:15 AM 59.5 °F 50.9 °F 73% 30.09 in 10.0 mi ENE 6.9 mph - N/A   Overcast
6:35 AM 58.5 °F 50.7 °F 75% 30.10 in 10.0 mi ENE 5.8 mph - N/A   Mostly Cloudy
6:55 AM 57.7 °F 50.7 °F 77% 30.10 in 10.0 mi ENE 3.5 mph - N/A   Scattered Clouds
7:15 AM 57.2 °F 50.5 °F 78% 30.11 in 10.0 mi ENE 3.5 mph - N/A   Mostly Cloudy
7:35 AM 57.9 °F 50.9 °F 77% 30.11 in 10.0 mi ENE 3.5 mph - N/A   Overcast
7:55 AM 59.0 °F 51.3 °F 75% 30.11 in 10.0 mi ENE 6.9 mph - N/A   Overcast
8:15 AM 59.9 °F 50.9 °F 72% 30.11 in 10.0 mi NE 5.8 mph - N/A   Overcast
8:35 AM 60.3 °F 51.1 °F 72% 30.10 in 10.0 mi ENE 8.1 mph - N/A   Overcast
8:55 AM 60.8 °F 51.4 °F 71% 30.10 in 10.0 mi NE 6.9 mph - N/A   Overcast
9:15 AM 61.2 °F 50.9 °F 69% 30.10 in 10.0 mi NE 8.1 mph - N/A   Overcast
9:35 AM 61.5 °F 51.1 °F 69% 30.10 in 10.0 mi East 6.9 mph - N/A   Overcast
9:55 AM 62.6 °F 51.4 °F 67% 30.10 in 10.0 mi ENE 8.1 mph - N/A   Overcast
10:15 AM 63.7 °F 51.4 °F 64% 30.09 in 10.0 mi East 8.1 mph - N/A   Overcast
10:35 AM 65.1 °F 51.6 °F 62% 30.09 in 10.0 mi ENE 15.0 mph 19.6 mph N/A   Mostly Cloudy
10:55 AM 65.7 °F 51.1 °F 59% 30.10 in 10.0 mi ENE 11.5 mph 20.7 mph N/A   Mostly Cloudy
11:15 AM 67.5 °F 50.7 °F 55% 30.09 in 10.0 mi East 15.0 mph 20.7 mph N/A   Mostly Cloudy
11:35 AM 66.9 °F 50.0 °F 54% 30.09 in 10.0 mi ENE 11.5 mph 17.3 mph N/A   Scattered Clouds
11:55 AM 68.7 °F 48.6 °F 49% 30.09 in 10.0 mi East 8.1 mph 21.9 mph N/A   Scattered Clouds
12:15 PM 69.1 °F 46.9 °F 45% 30.08 in 10.0 mi East 9.2 mph 16.1 mph N/A   Clear
12:35 PM 67.6 °F 47.7 °F 49% 30.08 in 10.0 mi ESE 11.5 mph 20.7 mph N/A   Scattered Clouds
12:55 PM 67.3 °F 48.6 °F 51% 30.07 in 10.0 mi East 11.5 mph 16.1 mph N/A   Overcast
1:15 PM 66.2 °F 48.9 °F 54% 30.07 in 10.0 mi East 17.3 mph 23.0 mph N/A   Overcast
1:55 PM 64.4 °F 49.3 °F 58% 30.07 in 10.0 mi East 12.7 mph 21.9 mph N/A   Overcast
2:15 PM 64.4 °F 49.5 °F 58% 30.07 in 10.0 mi East 8.1 mph - N/A   Overcast
2:35 PM 64.2 °F 49.3 °F 58% 30.07 in 10.0 mi East 8.1 mph 18.4 mph N/A   Overcast
2:55 PM 64.6 °F 49.6 °F 58% 30.06 in 10.0 mi East 15.0 mph 18.4 mph N/A   Overcast
3:15 PM 64.8 °F 50.2 °F 59% 30.06 in 10.0 mi East 8.1 mph 16.1 mph N/A   Overcast
3:35 PM 64.6 °F 50.7 °F 61% 30.05 in 10.0 mi East 10.4 mph - N/A   Overcast
3:55 PM 64.6 °F 50.0 °F 59% 30.05 in 10.0 mi ESE 6.9 mph 20.7 mph N/A   Overcast
4:15 PM 64.0 °F 50.4 °F 61% 30.05 in 10.0 mi SE 4.6 mph - N/A   Overcast
4:35 PM 63.3 °F 51.1 °F 64% 30.05 in 10.0 mi East 10.4 mph - N/A   Overcast
4:55 PM 62.6 °F 51.1 °F 66% 30.04 in 10.0 mi East 9.2 mph - N/A   Overcast
5:15 PM 63.5 °F 50.2 °F 62% 30.04 in 10.0 mi East 8.1 mph - N/A   Overcast
5:35 PM 63.7 °F 48.9 °F 59% 30.04 in 10.0 mi East 9.2 mph - N/A   Overcast
5:55 PM 62.8 °F 47.5 °F 57% 30.03 in 10.0 mi East 6.9 mph - N/A   Overcast
6:15 PM 62.1 °F 48.0 °F 60% 30.03 in 10.0 mi East 10.4 mph - N/A   Overcast
6:35 PM 62.1 °F 48.2 °F 60% 30.03 in 10.0 mi East 8.1 mph - N/A   Overcast
6:55 PM 61.7 °F 48.9 °F 63% 30.02 in 10.0 mi East 13.8 mph 18.4 mph N/A   Overcast
7:15 PM 61.7 °F 49.1 °F 63% 30.02 in 10.0 mi East 15.0 mph 24.2 mph N/A   Overcast
7:35 PM 61.0 °F 49.1 °F 65% 30.01 in 10.0 mi East 12.7 mph 26.5 mph N/A   Overcast
8:15 PM 60.3 °F 49.1 °F 67% 30.02 in 10.0 mi East 12.7 mph 20.7 mph N/A   Overcast
8:35 PM 60.1 °F 48.9 °F 67% 30.02 in 10.0 mi ENE 8.1 mph 17.3 mph N/A   Overcast
8:55 PM 60.4 °F 48.6 °F 65% 30.01 in 10.0 mi ESE 10.4 mph 24.2 mph N/A   Overcast
9:15 PM 60.1 °F 48.7 °F 66% 30.01 in 10.0 mi ENE 12.7 mph 20.7 mph N/A   Overcast
9:35 PM 59.9 °F 48.9 °F 67% 30.03 in 10.0 mi East 15.0 mph 25.3 mph N/A   Overcast
9:55 PM 59.5 °F 48.6 °F 67% 30.03 in 10.0 mi East 12.7 mph 19.6 mph N/A   Overcast
10:15 PM 59.4 °F 47.7 °F 65% 30.04 in 10.0 mi ENE 13.8 mph 20.7 mph N/A   Overcast
10:35 PM 58.8 °F 47.7 °F 66% 30.03 in 10.0 mi ENE 13.8 mph 17.3 mph N/A   Overcast
10:55 PM 59.0 °F 46.9 °F 64% 30.03 in 10.0 mi ENE 9.2 mph - N/A   Overcast
11:15 PM 59.2 °F 47.1 °F 64% 30.01 in 10.0 mi ENE 9.2 mph - N/A   Overcast
11:35 PM 59.4 °F 46.8 °F 63% 30.01 in 10.0 mi ENE 12.7 mph 21.9 mph N/A   Overcast
11:55 PM 58.8 °F 46.9 °F 65% 30.01 in 10.0 mi ENE 10.4 mph 16.1 mph N/A   Overcast